Location: Blangy-Tronville
(49.8790°N, 2.4226°E)
Time: 06:16:20
(UTC+00:00)

YAOGAN 1 - Pass Details

Date: 18 November 2025
Orbit: 605 x 607 km, 97.8° (Epoch: 06 December)

Event Time Altitude Azimuth Distance (km) Brightness Sun altitude
Rises 16:43:43 0° 117° (ESE) 2,860 5.6 -6.8°
Reaches altitude 10° 16:46:38 10° 95° (E) 1,961 4.6 -7.2°
Maximum altitude 16:49:09 16° 59° (ENE) 1,627 4.1 -7.6°
Drops below altitude 10° 16:51:40 10° 22° (NNE) 1,968 4.7 -7.9°
Sets 16:54:36 0° 1° (N) 2,877 5.8 -8.4°
